Private Wetterstation Wechselburg
Wetterdaten: Samstag, 02.01.2016
Datum Zeit Temp. +2m Bodentemp. Temp.+5cm Temp. Wind Windchill X Diff Temp. Feuchte +2m Feuchte +5cm Sonnenschein Luftdruck Regen Wind Richtung Richtung Sonnenschein Taupunkt Windchill Windben
02.01.2016 00:00 -1,5 C 22,9 C -0,1 C -0,7 C -0,7 C 0,8 C 90 % 89 % 0 % 1024,4 hPa 0,0 l/m 0,2 km/h (0 Bft) O-NO 67 0 min -2,9 C -0,7 C 0,0 km/h (0 Bft)
02.01.2016 00:05 -1,5 C 22,9 C -0,1 C -0,7 C -0,7 C 0,8 C 90 % 89 % 0 % 1024,4 hPa 0,0 l/m 0,3 km/h (0 Bft) NO 45 0 min -2,9 C -0,7 C 2,4 km/h (1 Bft)
02.01.2016 00:10 -1,5 C 22,9 C -0,1 C -0,8 C -0,8 C 0,7 C 90 % 89 % 0 % 1023,9 hPa 0,0 l/m 2,4 km/h (1 Bft) O-NO 67 0 min -2,9 C -0,8 C 2,6 km/h (1 Bft)
02.01.2016 00:15 -1,5 C 22,9 C -0,1 C -0,8 C -0,8 C 0,7 C 90 % 89 % 0 % 1023,9 hPa 0,0 l/m 1,9 km/h (1 Bft) O-NO 67 0 min -2,9 C -0,8 C 0,0 km/h (0 Bft)
02.01.2016 00:20 -1,5 C 22,9 C -0,1 C -0,8 C -0,8 C 0,7 C 90 % 89 % 0 % 1023,9 hPa 0,0 l/m 0,6 km/h (0 Bft) O-NO 67 0 min -2,9 C -0,8 C 0,0 km/h (0 Bft)
02.01.2016 00:25 -1,5 C 22,9 C -0,1 C -0,8 C -0,8 C 0,7 C 90 % 89 % 0 % 1023,9 hPa 0,0 l/m 0,5 km/h (0 Bft) NO 45 0 min -2,9 C -0,8 C 1,6 km/h (1 Bft)
02.01.2016 00:30 -1,5 C 22,9 C -0,1 C -0,8 C -0,8 C 0,7 C 90 % 89 % 0 % 1023,9 hPa 0,0 l/m 0,5 km/h (0 Bft) O-NO 67 0 min -2,9 C -0,8 C 1,8 km/h (1 Bft)
02.01.2016 00:35 -1,5 C 22,9 C -0,3 C -0,8 C -0,8 C 0,7 C 90 % 89 % 0 % 1023,9 hPa 0,0 l/m 0,8 km/h (0 Bft) NO 45 0 min -2,9 C -0,8 C 0,0 km/h (0 Bft)
02.01.2016 00:41 -1,5 C 22,9 C -0,3 C -0,9 C -0,9 C 0,6 C 90 % 90 % 0 % 1023,9 hPa 0,0 l/m 0,8 km/h (0 Bft) N 0 0 min -2,9 C -0,9 C 1,8 km/h (1 Bft)
02.01.2016 00:50 -1,6 C 22,9 C -0,3 C -1,1 C -1,1 C 0,5 C 90 % 90 % 0 % 1023,8 hPa 0,0 l/m 1,4 km/h (1 Bft) O-NO 67 0 min -3,0 C -1,1 C 1,8 km/h (1 Bft)
02.01.2016 00:55 -1,6 C 22,9 C -0,5 C -1,2 C -1,2 C 0,4 C 90 % 89 % 0 % 1023,8 hPa 0,0 l/m 1,3 km/h (1 Bft) O-SO 112 0 min -3,0 C -1,2 C 0,0 km/h (0 Bft)
02.01.2016 01:00 -1,7 C 22,9 C -0,6 C -1,4 C -1,4 C 0,3 C 89 % 90 % 0 % 1023,8 hPa 0,0 l/m 0,3 km/h (0 Bft) NO 45 0 min -3,3 C -1,4 C 0,0 km/h (0 Bft)
02.01.2016 01:05 -1,7 C 22,9 C -0,7 C -1,5 C -1,5 C 0,2 C 89 % 90 % 0 % 1023,8 hPa 0,0 l/m 0,2 km/h (0 Bft) NO 45 0 min -3,3 C -1,5 C 0,0 km/h (0 Bft)
02.01.2016 01:10 -1,7 C 22,9 C -0,7 C -1,7 C -1,8 C 0,0 C 89 % 90 % 0 % 1023,8 hPa 0,0 l/m 0,0 km/h (0 Bft) W-NW 292 0 min -3,3 C -1,8 C 0,0 km/h (0 Bft)
02.01.2016 01:15 -1,9 C 22,9 C -0,8 C -1,9 C -1,9 C 0,0 C 89 % 90 % 0 % 1023,8 hPa 0,0 l/m 0,0 km/h (0 Bft) O-NO 67 0 min -3,5 C -1,9 C 0,0 km/h (0 Bft)
02.01.2016 01:20 -1,9 C 22,9 C -0,9 C -1,8 C -1,8 C 0,1 C 89 % 90 % 0 % 1023,8 hPa 0,0 l/m 0,0 km/h (0 Bft) O-SO 112 0 min -3,5 C -1,8 C 0,0 km/h (0 Bft)
02.01.2016 01:25 -2,0 C 22,9 C -0,9 C -2,0 C -2,0 C 0,0 C 89 % 90 % 0 % 1023,8 hPa 0,0 l/m 0,0 km/h (0 Bft) N-NW 337 0 min -3,6 C -2,0 C 0,0 km/h (0 Bft)
02.01.2016 01:30 -2,1 C 22,8 C -0,9 C -2,1 C -2,1 C 0,0 C 89 % 90 % 0 % 1022,9 hPa 0,0 l/m 0,0 km/h (0 Bft) NO 45 0 min -3,7 C -2,1 C 0,0 km/h (0 Bft)
02.01.2016 01:35 -2,1 C 22,8 C -1,1 C -2,1 C -2,1 C 0,0 C 89 % 90 % 0 % 1022,9 hPa 0,0 l/m 0,0 km/h (0 Bft) O-NO 67 0 min -3,7 C -2,1 C 0,0 km/h (0 Bft)
02.01.2016 01:40 -2,1 C 22,8 C -1,2 C -2,2 C -2,3 C 0,0 C 89 % 90 % 0 % 1022,9 hPa 0,0 l/m 0,2 km/h (0 Bft) N-NW 337 0 min -3,7 C -2,3 C 0,0 km/h (0 Bft)
02.01.2016 01:45 -2,3 C 22,8 C -1,1 C -2,3 C -2,3 C 0,0 C 89 % 90 % 0 % 1022,9 hPa 0,0 l/m 0,2 km/h (0 Bft) O-NO 67 0 min -3,9 C -2,3 C 0,0 km/h (0 Bft)
02.01.2016 01:50 -2,3 C 22,8 C -1,3 C -2,3 C -2,4 C 0,0 C 89 % 90 % 0 % 1022,9 hPa 0,0 l/m 0,6 km/h (0 Bft) O-NO 67 0 min -3,9 C -2,4 C 0,0 km/h (0 Bft)
02.01.2016 01:55 -2,5 C 22,8 C -1,3 C -2,5 C -2,5 C 0,0 C 89 % 90 % 0 % 1022,9 hPa 0,0 l/m 0,5 km/h (0 Bft) NO 45 0 min -4,1 C -2,5 C 0,0 km/h (0 Bft)
02.01.2016 02:00 -2,5 C 22,8 C -1,5 C -2,6 C -2,7 C 0,0 C 89 % 90 % 0 % 1022,9 hPa 0,0 l/m 0,2 km/h (0 Bft) NW 315 0 min -4,1 C -2,7 C 0,0 km/h (0 Bft)
02.01.2016 02:05 -2,7 C 22,8 C -1,7 C -2,7 C -2,8 C 0,0 C 89 % 90 % 0 % 1022,9 hPa 0,0 l/m 0,0 km/h (0 Bft) NW 315 0 min -4,3 C -2,8 C 0,0 km/h (0 Bft)
02.01.2016 02:10 -2,8 C 22,8 C -1,7 C -2,9 C -3,0 C 0,0 C 89 % 90 % 0 % 1022,9 hPa 0,0 l/m 0,0 km/h (0 Bft) O-NO 67 0 min -4,4 C -3,0 C 0,0 km/h (0 Bft)
02.01.2016 02:15 -2,9 C 22,8 C -1,8 C -3,0 C -3,1 C 0,0 C 89 % 90 % 0 % 1022,9 hPa 0,0 l/m 0,0 km/h (0 Bft) NO 45 0 min -4,5 C -3,1 C 0,0 km/h (0 Bft)
02.01.2016 02:20 -2,9 C 22,8 C -1,9 C -3,0 C -3,2 C 0,0 C 89 % 90 % 0 % 1022,9 hPa 0,0 l/m 0,0 km/h (0 Bft) N-NO 22 0 min -4,5 C -3,2 C 0,0 km/h (0 Bft)
02.01.2016 02:25 -3,0 C 22,8 C -1,9 C -3,1 C -3,2 C 0,0 C 89 % 90 % 0 % 1022,9 hPa 0,0 l/m 0,0 km/h (0 Bft) NO 45 0 min -4,6 C -3,2 C 0,0 km/h (0 Bft)
02.01.2016 02:30 -3,1 C 22,7 C -2,0 C -3,1 C -3,2 C 0,0 C 89 % 89 % 0 % 1022,9 hPa 0,0 l/m 0,3 km/h (0 Bft) NO 45 0 min -4,6 C -3,2 C 1,6 km/h (1 Bft)
02.01.2016 02:35 -3,1 C 22,7 C -2,0 C -3,1 C -3,2 C 0,0 C 89 % 89 % 0 % 1022,9 hPa 0,0 l/m 0,3 km/h (0 Bft) O-NO 67 0 min -4,6 C -3,2 C 0,0 km/h (0 Bft)
02.01.2016 02:40 -3,1 C 22,7 C -2,0 C -3,2 C -3,3 C 0,0 C 89 % 89 % 0 % 1022,9 hPa 0,0 l/m 0,2 km/h (0 Bft) O 90 0 min -4,6 C -3,3 C 0,0 km/h (0 Bft)
02.01.2016 02:45 -3,2 C 22,7 C -2,1 C -3,3 C -3,4 C 0,0 C 89 % 89 % 0 % 1022,9 hPa 0,0 l/m 0,0 km/h (0 Bft) O 90 0 min -4,7 C -3,4 C 0,0 km/h (0 Bft)
02.01.2016 02:50 -3,3 C 22,7 C -2,1 C -3,3 C -3,4 C 0,0 C 89 % 89 % 0 % 1022,5 hPa 0,0 l/m 0,0 km/h (0 Bft) O 90 0 min -4,8 C -3,4 C 0,0 km/h (0 Bft)
02.01.2016 02:55 -3,3 C 22,7 C -2,1 C -3,3 C -3,4 C 0,0 C 89 % 90 % 0 % 1022,5 hPa 0,0 l/m 0,0 km/h (0 Bft) O 90 0 min -4,8 C -3,4 C 0,0 km/h (0 Bft)
02.01.2016 03:00 -3,3 C 22,7 C -2,3 C -3,4 C -3,5 C 0,0 C 89 % 89 % 0 % 1022,5 hPa 0,0 l/m 0,0 km/h (0 Bft) O 90 0 min -4,8 C -3,5 C 0,0 km/h (0 Bft)
02.01.2016 03:05 -3,3 C 22,7 C -2,4 C -3,4 C -3,5 C 0,0 C 89 % 89 % 0 % 1022,5 hPa 0,0 l/m 0,0 km/h (0 Bft) O 90 0 min -4,8 C -3,5 C 0,0 km/h (0 Bft)
02.01.2016 03:10 -3,3 C 22,7 C -2,4 C -3,4 C -3,7 C 0,0 C 89 % 89 % 0 % 1022,6 hPa 0,0 l/m 0,0 km/h (0 Bft) O 90 0 min -4,8 C -3,7 C 0,0 km/h (0 Bft)
02.01.2016 03:15 -3,3 C 22,7 C -2,5 C -3,5 C -3,8 C 0,0 C 89 % 89 % 0 % 1022,6 hPa 0,0 l/m 0,0 km/h (0 Bft) O 90 0 min -4,8 C -3,8 C 0,0 km/h (0 Bft)
02.01.2016 03:20 -3,6 C 22,6 C -2,5 C -3,7 C -3,9 C 0,0 C 89 % 89 % 0 % 1022,6 hPa 0,0 l/m 0,0 km/h (0 Bft) O 90 0 min -5,1 C -3,9 C 0,0 km/h (0 Bft)
02.01.2016 03:25 -3,7 C 22,6 C -2,5 C -3,8 C -3,9 C 0,0 C 89 % 89 % 0 % 1022,6 hPa 0,0 l/m 0,0 km/h (0 Bft) NW 315 0 min -5,2 C -3,9 C 0,0 km/h (0 Bft)
02.01.2016 03:30 -3,7 C 22,6 C -2,5 C -3,7 C -3,8 C 0,0 C 89 % 89 % 0 % 1022,6 hPa 0,0 l/m 0,0 km/h (0 Bft) NW 315 0 min -5,2 C -3,8 C 0,0 km/h (0 Bft)
02.01.2016 03:35 -3,7 C 22,6 C -2,7 C -3,7 C -3,8 C 0,0 C 89 % 89 % 0 % 1022,6 hPa 0,0 l/m 0,0 km/h (0 Bft) NW 315 0 min -5,2 C -3,8 C 0,0 km/h (0 Bft)
02.01.2016 03:41 -3,7 C 22,6 C -2,8 C -3,8 C -4,0 C 0,0 C 89 % 89 % 0 % 1022,6 hPa 0,0 l/m 0,0 km/h (0 Bft) N 0 0 min -5,2 C -4,0 C 0,0 km/h (0 Bft)
02.01.2016 03:50 -3,9 C 22,6 C -2,7 C -4,1 C -4,4 C 0,0 C 89 % 89 % 0 % 1022,6 hPa 0,0 l/m 0,0 km/h (0 Bft) NW 315 0 min -5,4 C -4,4 C 0,0 km/h (0 Bft)
02.01.2016 03:55 -3,9 C 22,6 C -2,9 C -4,1 C -4,5 C 0,0 C 89 % 89 % 0 % 1022,6 hPa 0,0 l/m 0,0 km/h (0 Bft) NW 315 0 min -5,4 C -4,5 C 0,0 km/h (0 Bft)
02.01.2016 04:00 -3,9 C 22,6 C -2,9 C -4,0 C -4,3 C 0,0 C 89 % 89 % 0 % 1022,6 hPa 0,0 l/m 0,0 km/h (0 Bft) NO 45 0 min -5,4 C -4,3 C 0,0 km/h (0 Bft)
02.01.2016 04:05 -3,9 C 22,7 C -2,7 C -4,0 C -4,1 C 0,0 C 89 % 89 % 0 % 1022,6 hPa 0,0 l/m 0,0 km/h (0 Bft) NO 45 0 min -5,4 C -4,1 C 0,0 km/h (0 Bft)
02.01.2016 04:10 -4,0 C 22,7 C -2,9 C -4,1 C -4,3 C 0,0 C 89 % 89 % 0 % 1022,6 hPa 0,0 l/m 0,0 km/h (0 Bft) NO 45 0 min -5,5 C -4,3 C 0,0 km/h (0 Bft)
02.01.2016 04:15 -4,1 C 22,7 C -2,9 C -4,2 C -4,4 C 0,0 C 89 % 89 % 0 % 1022,6 hPa 0,0 l/m 0,0 km/h (0 Bft) NO 45 0 min -5,6 C -4,4 C 0,0 km/h (0 Bft)
02.01.2016 04:20 -4,1 C 22,7 C -2,9 C -4,2 C -4,5 C 0,0 C 89 % 89 % 0 % 1022,6 hPa 0,0 l/m 0,0 km/h (0 Bft) NO 45 0 min -5,6 C -4,5 C 0,0 km/h (0 Bft)
02.01.2016 04:25 -4,1 C 22,7 C -3,0 C -4,3 C -4,6 C 0,0 C 89 % 89 % 0 % 1022,6 hPa 0,0 l/m 0,0 km/h (0 Bft) NO 45 0 min -5,6 C -4,6 C 0,0 km/h (0 Bft)
02.01.2016 04:30 -4,3 C 22,7 C -3,1 C -4,4 C -4,6 C 0,0 C 89 % 89 % 0 % 1022,4 hPa 0,0 l/m 0,0 km/h (0 Bft) NO 45 0 min -5,8 C -4,6 C 0,0 km/h (0 Bft)
02.01.2016 04:35 -4,2 C 22,6 C -3,1 C -4,3 C -4,4 C 0,0 C 89 % 89 % 0 % 1022,4 hPa 0,0 l/m 0,0 km/h (0 Bft) N-NO 22 0 min -5,7 C -4,4 C 0,0 km/h (0 Bft)
02.01.2016 04:40 -4,1 C 22,6 C -3,1 C -4,1 C -4,2 C 0,0 C 89 % 89 % 0 % 1022,4 hPa 0,0 l/m 0,5 km/h (0 Bft) S-SW 202 0 min -5,6 C -4,2 C 1,8 km/h (1 Bft)
02.01.2016 04:45 -4,0 C 22,7 C -2,9 C -4,0 C -4,0 C 0,0 C 90 % 89 % 0 % 1022,4 hPa 0,0 l/m 1,0 km/h (0 Bft) O-NO 67 0 min -5,4 C -4,0 C 2,4 km/h (1 Bft)
02.01.2016 04:50 -3,7 C 22,7 C -2,5 C -3,7 C -3,7 C 0,0 C 90 % 89 % 0 % 1021,9 hPa 0,0 l/m 1,9 km/h (1 Bft) O-NO 67 0 min -5,1 C -3,7 C 1,9 km/h (1 Bft)
02.01.2016 04:55 -3,5 C 22,7 C -2,4 C -3,5 C -3,6 C 0,0 C 90 % 89 % 0 % 1021,9 hPa 0,0 l/m 2,3 km/h (1 Bft) O-NO 67 0 min -4,9 C -3,6 C 2,1 km/h (1 Bft)
02.01.2016 05:00 -3,3 C 22,7 C -2,3 C -3,3 C -3,4 C 0,0 C 90 % 88 % 0 % 1021,9 hPa 0,0 l/m 2,1 km/h (1 Bft) O-NO 67 0 min -4,7 C -3,4 C 0,0 km/h (0 Bft)
02.01.2016 05:05 -3,3 C 22,7 C -2,3 C -3,3 C -3,4 C 0,0 C 90 % 88 % 0 % 1021,9 hPa 0,0 l/m 1,6 km/h (1 Bft) NO 45 0 min -4,7 C -3,4 C 2,3 km/h (1 Bft)
02.01.2016 05:10 -3,3 C 22,5 C -2,3 C -3,3 C -3,4 C 0,0 C 90 % 88 % 0 % 1022,2 hPa 0,0 l/m 1,9 km/h (1 Bft) O-NO 67 0 min -4,7 C -3,4 C 3,4 km/h (1 Bft)
02.01.2016 05:15 -3,3 C 22,5 C -2,3 C -3,3 C -3,3 C 0,0 C 90 % 88 % 0 % 1022,2 hPa 0,0 l/m 2,1 km/h (1 Bft) NO 45 0 min -4,7 C -3,3 C 1,8 km/h (1 Bft)
02.01.2016 05:20 -3,3 C 22,5 C -2,4 C -3,3 C -3,4 C 0,0 C 90 % 89 % 0 % 1022,2 hPa 0,0 l/m 1,4 km/h (1 Bft) O-NO 67 0 min -4,7 C -3,4 C 1,8 km/h (1 Bft)
02.01.2016 05:25 -3,3 C 22,5 C -2,4 C -3,4 C -3,5 C 0,0 C 90 % 89 % 0 % 1022,2 hPa 0,0 l/m 1,3 km/h (1 Bft) O-NO 67 0 min -4,7 C -3,5 C 1,9 km/h (1 Bft)
02.01.2016 05:30 -3,5 C 22,6 C -2,5 C -3,5 C -3,6 C 0,0 C 90 % 89 % 0 % 1021,8 hPa 0,0 l/m 1,3 km/h (1 Bft) O-NO 67 0 min -4,9 C -3,6 C 2,1 km/h (1 Bft)
02.01.2016 05:35 -3,5 C 22,6 C -2,5 C -3,5 C -3,6 C 0,0 C 90 % 89 % 0 % 1021,8 hPa 0,0 l/m 1,6 km/h (1 Bft) NO 45 0 min -4,9 C -3,6 C 2,4 km/h (1 Bft)
02.01.2016 05:40 -3,6 C 22,6 C -2,5 C -3,6 C -3,7 C 0,0 C 90 % 89 % 0 % 1021,8 hPa 0,0 l/m 1,6 km/h (1 Bft) O-NO 67 0 min -5,0 C -3,7 C 1,8 km/h (1 Bft)
02.01.2016 05:45 -3,7 C 22,6 C -2,5 C -3,7 C -3,8 C 0,0 C 90 % 89 % 0 % 1021,8 hPa 0,0 l/m 1,1 km/h (1 Bft) O-NO 67 0 min -5,1 C -3,8 C 1,6 km/h (1 Bft)
02.01.2016 05:50 -3,7 C 22,6 C -2,8 C -3,8 C -4,0 C 0,0 C 89 % 89 % 0 % 1021,8 hPa 0,0 l/m 1,3 km/h (1 Bft) O-NO 67 0 min -5,2 C -4,0 C 2,4 km/h (1 Bft)
02.01.2016 05:55 -3,9 C 22,6 C -2,7 C -3,9 C -4,0 C 0,0 C 89 % 89 % 0 % 1021,8 hPa 0,0 l/m 1,9 km/h (1 Bft) O-NO 67 0 min -5,4 C -4,0 C 2,9 km/h (1 Bft)
02.01.2016 06:00 -3,9 C 22,6 C -2,7 C -4,1 C -4,5 C 0,0 C 89 % 89 % 0 % 1021,8 hPa 0,0 l/m 2,6 km/h (1 Bft) O-NO 67 0 min -5,4 C -4,5 C 4,2 km/h (1 Bft)
02.01.2016 06:05 -3,9 C 22,6 C -2,7 C -4,1 C -4,5 C 0,0 C 90 % 89 % 0 % 1021,8 hPa 0,0 l/m 2,6 km/h (1 Bft) O 90 0 min -5,3 C -4,5 C 3,1 km/h (1 Bft)
02.01.2016 06:10 -3,7 C 22,6 C -2,5 C -4,0 C -4,7 C 0,0 C 90 % 89 % 0 % 1021,4 hPa 0,0 l/m 3,1 km/h (1 Bft) O-NO 67 0 min -5,1 C -4,7 C 4,7 km/h (1 Bft)
02.01.2016 06:15 -3,8 C 22,6 C -2,6 C -4,1 C -4,7 C 0,0 C 90 % 89 % 0 % 1021,4 hPa 0,0 l/m 3,2 km/h (1 Bft) O-NO 67 0 min -5,2 C -4,7 C 4,2 km/h (1 Bft)
02.01.2016 06:20 -3,7 C 22,6 C -2,5 C -4,0 C -4,6 C 0,0 C 90 % 89 % 0 % 1021,4 hPa 0,0 l/m 3,2 km/h (1 Bft) NO 45 0 min -5,1 C -4,6 C 3,2 km/h (1 Bft)
02.01.2016 06:25 -3,7 C 22,6 C -2,5 C -3,9 C -4,3 C 0,0 C 90 % 89 % 0 % 1021,4 hPa 0,0 l/m 2,9 km/h (1 Bft) O-NO 67 0 min -5,1 C -4,3 C 2,4 km/h (1 Bft)
02.01.2016 06:30 -3,7 C 22,6 C -2,7 C -3,7 C -3,7 C 0,0 C 90 % 89 % 0 % 1021,3 hPa 0,0 l/m 2,1 km/h (1 Bft) O-NO 67 0 min -5,1 C -3,7 C 2,3 km/h (1 Bft)
02.01.2016 06:35 -3,9 C 22,6 C -2,7 C -3,8 C -3,8 C 0,1 C 90 % 89 % 0 % 1021,3 hPa 0,0 l/m 1,9 km/h (1 Bft) O-NO 67 0 min -5,3 C -3,8 C 2,4 km/h (1 Bft)
02.01.2016 06:41 -3,9 C 22,6 C -2,7 C -3,8 C -3,8 C 0,1 C 90 % 89 % 0 % 1021,3 hPa 0,0 l/m 1,9 km/h (1 Bft) N 0 0 min -5,3 C -3,8 C 2,4 km/h (1 Bft)
02.01.2016 06:50 -3,7 C 22,6 C -2,7 C -3,7 C -3,8 C 0,0 C 90 % 89 % 0 % 1022,0 hPa 0,0 l/m 2,3 km/h (1 Bft) O-NO 67 0 min -5,1 C -3,8 C 3,1 km/h (1 Bft)
02.01.2016 06:55 -3,7 C 22,5 C -2,5 C -3,9 C -4,2 C 0,0 C 90 % 89 % 0 % 1022,0 hPa 0,0 l/m 2,6 km/h (1 Bft) O-NO 67 0 min -5,1 C -4,2 C 3,1 km/h (1 Bft)
02.01.2016 07:00 -3,7 C 22,5 C -2,5 C -3,9 C -4,2 C 0,0 C 90 % 89 % 0 % 1022,0 hPa 0,0 l/m 2,9 km/h (1 Bft) O-NO 67 0 min -5,1 C -4,2 C 2,7 km/h (1 Bft)
02.01.2016 07:05 -3,7 C 22,5 C -2,5 C -3,9 C -4,2 C 0,0 C 90 % 89 % 0 % 1022,0 hPa 0,0 l/m 2,9 km/h (1 Bft) O-NO 67 0 min -5,1 C -4,2 C 2,3 km/h (1 Bft)
02.01.2016 07:10 -3,6 C 22,5 C -2,3 C -3,7 C -3,9 C 0,0 C 90 % 89 % 0 % 1021,5 hPa 0,0 l/m 2,7 km/h (1 Bft) O-NO 67 0 min -5,0 C -3,9 C 5,5 km/h (1 Bft)
02.01.2016 07:15 -3,6 C 22,5 C -2,5 C -3,8 C -4,1 C 0,0 C 90 % 89 % 0 % 1021,5 hPa 0,0 l/m 2,9 km/h (1 Bft) O-NO 67 0 min -5,0 C -4,1 C 4,5 km/h (1 Bft)
02.01.2016 07:20 -3,6 C 22,5 C -2,4 C -3,9 C -4,4 C 0,0 C 90 % 89 % 0 % 1021,5 hPa 0,0 l/m 3,4 km/h (1 Bft) O-NO 67 0 min -5,0 C -4,4 C 4,0 km/h (1 Bft)
02.01.2016 07:25 -3,5 C 22,5 C -2,4 C -3,8 C -4,4 C 0,0 C 90 % 89 % 0 % 1021,5 hPa 0,0 l/m 3,4 km/h (1 Bft) O-NO 67 0 min -4,9 C -4,4 C 4,2 km/h (1 Bft)
02.01.2016 07:30 -3,5 C 22,5 C -2,4 C -3,9 C -4,7 C 0,0 C 90 % 89 % 0 % 1021,3 hPa 0,0 l/m 3,7 km/h (1 Bft) O-NO 67 0 min -4,9 C -4,7 C 6,6 km/h (2 Bft)
02.01.2016 07:35 -3,5 C 22,5 C -2,4 C -3,9 C -4,6 C 0,0 C 90 % 89 % 0 % 1021,3 hPa 0,0 l/m 3,5 km/h (1 Bft) O-NO 67 0 min -4,9 C -4,6 C 3,2 km/h (1 Bft)
02.01.2016 07:40 -3,5 C 22,4 C -2,3 C -3,8 C -4,3 C 0,0 C 90 % 89 % 0 % 1021,3 hPa 0,0 l/m 3,2 km/h (1 Bft) NO 45 0 min -4,9 C -4,3 C 7,1 km/h (2 Bft)
02.01.2016 07:45 -3,5 C 22,4 C -2,4 C -3,8 C -4,3 C 0,0 C 90 % 89 % 0 % 1021,3 hPa 0,0 l/m 3,2 km/h (1 Bft) NO 45 0 min -4,9 C -4,3 C 3,9 km/h (1 Bft)
02.01.2016 07:50 -3,5 C 22,5 C -2,4 C -3,7 C -4,1 C 0,0 C 90 % 89 % 0 % 1021,6 hPa 0,0 l/m 2,9 km/h (1 Bft) NO 45 0 min -4,9 C -4,1 C 8,0 km/h (2 Bft)
02.01.2016 07:55 -3,5 C 22,5 C -2,3 C -3,9 C -4,6 C 0,0 C 90 % 89 % 0 % 1021,6 hPa 0,0 l/m 3,5 km/h (1 Bft) NO 45 0 min -4,9 C -4,6 C 3,1 km/h (1 Bft)
02.01.2016 08:00 -3,5 C 22,4 C -2,3 C -3,9 C -4,6 C 0,0 C 90 % 89 % 0 % 1021,6 hPa 0,0 l/m 3,5 km/h (1 Bft) O-NO 67 0 min -4,9 C -4,6 C 3,7 km/h (1 Bft)
02.01.2016 08:05 -3,5 C 22,3 C -2,3 C -3,8 C -4,4 C 0,0 C 90 % 89 % 0 % 1021,6 hPa 0,0 l/m 3,4 km/h (1 Bft) O-NO 67 0 min -4,9 C -4,4 C 3,7 km/h (1 Bft)
02.01.2016 08:10 -3,5 C 22,3 C -2,3 C -3,8 C -4,4 C 0,0 C 90 % 89 % 0 % 1021,6 hPa 0,0 l/m 3,4 km/h (1 Bft) N-NO 22 0 min -4,9 C -4,4 C 3,7 km/h (1 Bft)
02.01.2016 08:15 -3,5 C 22,3 C -2,4 C -3,7 C -4,2 C 0,0 C 90 % 89 % 0 % 1021,6 hPa 0,0 l/m 3,1 km/h (1 Bft) O-NO 67 0 min -4,9 C -4,2 C 3,4 km/h (1 Bft)
02.01.2016 08:20 -3,5 C 22,4 C -2,3 C -3,6 C -3,9 C 0,0 C 90 % 89 % 0 % 1021,6 hPa 0,0 l/m 2,6 km/h (1 Bft) NO 45 0 min -4,9 C -3,9 C 2,7 km/h (1 Bft)
02.01.2016 08:25 -3,5 C 22,3 C -2,4 C -3,7 C -4,1 C 0,0 C 90 % 89 % 0 % 1021,6 hPa 0,0 l/m 2,7 km/h (1 Bft) NO 45 0 min -4,9 C -4,1 C 2,9 km/h (1 Bft)
02.01.2016 08:30 -3,5 C 22,4 C -2,3 C -3,8 C -4,3 C 0,0 C 90 % 89 % 0 % 1021,0 hPa 0,0 l/m 3,1 km/h (1 Bft) NO 45 0 min -4,9 C -4,3 C 4,2 km/h (1 Bft)
02.01.2016 08:35 -3,5 C 22,3 C -2,3 C -3,8 C -4,3 C 0,0 C 90 % 89 % 0 % 1021,0 hPa 0,0 l/m 3,2 km/h (1 Bft) O-NO 67 0 min -4,9 C -4,3 C 4,8 km/h (1 Bft)
02.01.2016 08:40 -3,3 C 22,3 C -2,1 C -3,6 C -4,2 C 0,0 C 90 % 89 % 0 % 1021,0 hPa 0,0 l/m 3,1 km/h (1 Bft) NO 45 0 min -4,7 C -4,2 C 1,9 km/h (1 Bft)
02.01.2016 08:45 -3,3 C 22,2 C -2,4 C -3,3 C -3,4 C 0,0 C 90 % 90 % 0 % 1021,0 hPa 0,0 l/m 2,1 km/h (1 Bft) NO 45 0 min -4,7 C -3,4 C 1,6 km/h (1 Bft)
02.01.2016 08:50 -3,3 C 22,2 C -2,6 C -3,3 C -3,4 C 0,0 C 90 % 90 % 0 % 1021,1 hPa 0,0 l/m 1,0 km/h (0 Bft) NO 45 0 min -4,7 C -3,4 C 1,9 km/h (1 Bft)
02.01.2016 08:55 -3,3 C 22,2 C -2,5 C -3,3 C -3,4 C 0,0 C 90 % 90 % 0 % 1021,1 hPa 0,0 l/m 1,4 km/h (1 Bft) N-NO 22 0 min -4,7 C -3,4 C 2,1 km/h (1 Bft)
02.01.2016 09:00 -3,5 C 22,2 C -2,5 C -3,4 C -3,4 C 0,1 C 90 % 90 % 3 % 1021,1 hPa 0,0 l/m 1,8 km/h (1 Bft) NO 45 0 min -4,9 C -3,4 C 2,7 km/h (1 Bft)
02.01.2016 09:05 -3,4 C 22,2 C -2,5 C -3,4 C -3,4 C 0,0 C 90 % 90 % 0 % 1021,1 hPa 0,0 l/m 2,1 km/h (1 Bft) O 90 0 min -4,8 C -3,4 C 2,7 km/h (1 Bft)
02.01.2016 09:10 -3,2 C 22,3 C -2,1 C -3,4 C -3,8 C 0,0 C 90 % 89 % 0 % 1021,1 hPa 0,0 l/m 2,7 km/h (1 Bft) NO 45 0 min -4,6 C -3,8 C 3,4 km/h (1 Bft)
02.01.2016 09:15 -2,9 C 22,4 C -2,1 C -3,2 C -3,9 C 0,0 C 90 % 89 % 0 % 1021,1 hPa 0,0 l/m 3,2 km/h (1 Bft) O-NO 67 0 min -4,3 C -3,9 C 4,5 km/h (1 Bft)
02.01.2016 09:20 -2,7 C 22,4 C -1,7 C -3,1 C -4,0 C 0,0 C 90 % 90 % 0 % 1021,1 hPa 0,0 l/m 3,9 km/h (1 Bft) O-NO 67 0 min -4,1 C -4,0 C 6,1 km/h (2 Bft)
02.01.2016 09:25 -2,7 C 22,4 C -1,7 C -3,1 C -3,9 C 0,0 C 90 % 90 % 0 % 1021,1 hPa 0,0 l/m 4,0 km/h (1 Bft) O 90 0 min -4,1 C -3,9 C 3,5 km/h (1 Bft)
02.01.2016 09:30 -2,5 C 22,4 C -1,6 C -2,9 C -3,7 C 0,0 C 90 % 90 % 0 % 1021,1 hPa 0,0 l/m 4,2 km/h (1 Bft) O-NO 67 0 min -3,9 C -3,7 C 4,5 km/h (1 Bft)
02.01.2016 09:35 -2,5 C 22,3 C -1,6 C -2,9 C -3,6 C 0,0 C 90 % 90 % 0 % 1021,1 hPa 0,0 l/m 4,2 km/h (1 Bft) O-NO 67 0 min -3,9 C -3,6 C 4,2 km/h (1 Bft)
02.01.2016 09:41 -2,4 C 22,3 C -1,5 C -2,8 C -3,7 C 0,0 C 90 % 90 % 0 % 1021,1 hPa 0,0 l/m 4,5 km/h (1 Bft) N 0 0 min -3,8 C -3,7 C 5,0 km/h (1 Bft)
02.01.2016 09:50 -2,1 C 22,3 C -1,3 C -2,6 C -3,6 C 0,0 C 90 % 90 % 0 % 1021,1 hPa 0,0 l/m 4,5 km/h (1 Bft) O 90 0 min -3,5 C -3,6 C 4,3 km/h (1 Bft)
02.01.2016 09:55 -2,1 C 22,3 C -1,3 C -2,5 C -3,2 C 0,0 C 90 % 90 % 0 % 1021,1 hPa 0,0 l/m 4,0 km/h (1 Bft) O 90 0 min -3,5 C -3,2 C 4,5 km/h (1 Bft)
02.01.2016 10:00 -1,9 C 22,3 C -1,1 C -2,0 C -2,3 C 0,0 C 89 % 90 % 0 % 1021,1 hPa 0,0 l/m 3,4 km/h (1 Bft) O-NO 67 0 min -3,5 C -2,3 C 3,4 km/h (1 Bft)
02.01.2016 10:05 -1,7 C 22,3 C -0,9 C -1,9 C -2,2 C 0,0 C 90 % 90 % 0 % 1021,1 hPa 0,0 l/m 3,4 km/h (1 Bft) O 90 0 min -3,1 C -2,2 C 4,3 km/h (1 Bft)
02.01.2016 10:10 -1,5 C 22,3 C -0,9 C -1,5 C -1,5 C 0,0 C 90 % 90 % 0 % 1021,1 hPa 0,0 l/m 2,7 km/h (1 Bft) NO 45 0 min -2,9 C -1,5 C 2,7 km/h (1 Bft)
02.01.2016 10:15 -1,3 C 22,2 C -0,8 C -1,2 C -1,2 C 0,1 C 90 % 90 % 3 % 1021,1 hPa 0,0 l/m 2,7 km/h (1 Bft) O-NO 67 0 min -2,7 C -1,2 C 3,2 km/h (1 Bft)
02.01.2016 10:20 -1,2 C 22,2 C -0,5 C -1,7 C -2,6 C 0,0 C 90 % 90 % 0 % 1021,1 hPa 0,0 l/m 5,1 km/h (1 Bft) O-NO 67 0 min -2,6 C -4,6 C 9,5 km/h (2 Bft)
02.01.2016 10:25 -1,1 C 22,2 C -0,3 C -1,8 C -3,1 C 0,0 C 89 % 90 % 0 % 1021,1 hPa 0,0 l/m 6,4 km/h (2 Bft) O 90 0 min -2,7 C -5,8 C 8,5 km/h (2 Bft)
02.01.2016 10:30 -0,9 C 22,2 C -0,3 C -1,5 C -2,7 C 0,0 C 89 % 90 % 0 % 1020,8 hPa 0,0 l/m 6,4 km/h (2 Bft) O 90 0 min -2,5 C -5,3 C 11,4 km/h (2 Bft)
02.01.2016 10:35 -0,9 C 22,2 C -0,2 C -1,4 C -2,3 C 0,0 C 88 % 90 % 0 % 1020,8 hPa 0,0 l/m 6,1 km/h (2 Bft) O-NO 67 0 min -2,6 C -4,7 C 7,7 km/h (2 Bft)
02.01.2016 10:40 -0,7 C 22,2 C 0,0 C -1,2 C -2,2 C 0,0 C 88 % 90 % 0 % 1020,8 hPa 0,0 l/m 6,1 km/h (2 Bft) O 90 0 min -2,4 C -4,6 C 4,3 km/h (1 Bft)
02.01.2016 10:45 -0,5 C 22,2 C 0,3 C -1,1 C -2,3 C 0,0 C 88 % 90 % 0 % 1020,8 hPa 0,0 l/m 6,8 km/h (2 Bft) O-NO 67 0 min -2,2 C -5,0 C 8,7 km/h (2 Bft)
02.01.2016 10:50 -0,5 C 22,1 C 0,4 C -1,1 C -2,4 C 0,0 C 87 % 90 % 0 % 1020,8 hPa 0,0 l/m 7,4 km/h (2 Bft) O-NO 67 0 min -2,4 C -5,3 C 12,7 km/h (3 Bft)
02.01.2016 10:55 -0,5 C 22,1 C 0,4 C -0,9 C -2,6 C 0,0 C 87 % 90 % 0 % 1020,8 hPa 0,0 l/m 8,4 km/h (2 Bft) O-NO 67 0 min -2,4 C -5,9 C 8,9 km/h (2 Bft)
02.01.2016 11:00 -0,3 C 22,0 C 0,5 C -0,8 C -2,9 C 0,0 C 86 % 90 % 0 % 1020,8 hPa 0,0 l/m 9,8 km/h (2 Bft) N-NW 337 0 min -2,3 C -6,7 C 15,6 km/h (3 Bft)
02.01.2016 11:05 -0,1 C 22,0 C 0,6 C -0,7 C -2,8 C 0,0 C 86 % 90 % 0 % 1020,8 hPa 0,0 l/m 9,8 km/h (2 Bft) O-NO 67 0 min -2,2 C -6,6 C 11,9 km/h (2 Bft)
02.01.2016 11:10 -0,1 C 22,0 C 0,7 C -0,6 C -2,7 C 0,0 C 86 % 90 % 0 % 1020,8 hPa 0,0 l/m 10,1 km/h (2 Bft) O-NO 67 0 min -2,2 C -6,6 C 10,0 km/h (2 Bft)
02.01.2016 11:15 -0,1 C 22,0 C 0,7 C -0,6 C -2,4 C 0,0 C 85 % 90 % 0 % 1020,8 hPa 0,0 l/m 9,3 km/h (2 Bft) O-NO 67 0 min -2,3 C -6,0 C 9,5 km/h (2 Bft)
02.01.2016 11:20 -0,1 C 22,0 C 0,8 C -0,5 C -1,9 C 0,0 C 85 % 90 % 0 % 1020,8 hPa 0,0 l/m 8,0 km/h (2 Bft) O-NO 67 0 min -2,3 C -5,0 C 9,8 km/h (2 Bft)
02.01.2016 11:25 -0,1 C 22,0 C 0,9 C -0,4 C -2,0 C 0,0 C 85 % 90 % 0 % 1020,8 hPa 0,0 l/m 8,4 km/h (2 Bft) O-NO 67 0 min -2,3 C -5,2 C 8,9 km/h (2 Bft)
02.01.2016 11:30 0,0 C 22,0 C 1,0 C -0,4 C -2,1 C 0,0 C 84 % 90 % 0 % 1020,3 hPa 0,0 l/m 8,5 km/h (2 Bft) O-NO 67 0 min -2,4 C -5,4 C 10,0 km/h (2 Bft)
02.01.2016 11:35 0,0 C 22,0 C 1,0 C -0,4 C -1,9 C 0,0 C 84 % 90 % 0 % 1020,3 hPa 0,0 l/m 8,2 km/h (2 Bft) O-NO 67 0 min -2,4 C -5,0 C 6,3 km/h (2 Bft)
02.01.2016 11:40 0,0 C 22,0 C 1,1 C -0,3 C -1,7 C 0,0 C 84 % 90 % 0 % 1020,3 hPa 0,0 l/m 7,9 km/h (2 Bft) O-SO 112 0 min -2,4 C -4,7 C 8,2 km/h (2 Bft)
02.01.2016 11:45 0,1 C 22,0 C 1,1 C -0,2 C -1,6 C 0,0 C 84 % 89 % 0 % 1020,3 hPa 0,0 l/m 7,7 km/h (2 Bft) O-NO 67 0 min -2,3 C -4,5 C 7,7 km/h (2 Bft)
02.01.2016 11:50 0,2 C 22,0 C 1,1 C -0,4 C -1,6 C 0,0 C 84 % 89 % 0 % 1020,3 hPa 0,0 l/m 8,2 km/h (2 Bft) O-NO 67 0 min -2,2 C -4,7 C 8,2 km/h (2 Bft)
02.01.2016 11:55 0,3 C 22,0 C 1,3 C 0,0 C -1,5 C 0,0 C 84 % 89 % 0 % 1020,3 hPa 0,0 l/m 8,2 km/h (2 Bft) O-NO 67 0 min -2,1 C -4,6 C 12,1 km/h (2 Bft)
02.01.2016 12:00 0,3 C 22,0 C 1,3 C 0,0 C -1,9 C 0,0 C 83 % 88 % 0 % 1020,3 hPa 0,0 l/m 10,3 km/h (2 Bft) O 90 0 min -2,2 C -5,7 C 17,2 km/h (3 Bft)
02.01.2016 12:05 0,3 C 22,0 C 1,3 C -0,1 C -2,1 C 0,0 C 83 % 88 % 0 % 1020,3 hPa 0,0 l/m 10,9 km/h (2 Bft) O-NO 67 0 min -2,2 C -6,1 C 14,5 km/h (3 Bft)
02.01.2016 12:10 0,4 C 22,0 C 1,5 C 0,0 C -1,7 C 0,0 C 83 % 88 % 0 % 1020,3 hPa 0,0 l/m 10,3 km/h (2 Bft) O-SO 112 0 min -2,1 C -5,4 C 10,3 km/h (2 Bft)
02.01.2016 12:15 0,5 C 22,0 C 1,5 C 0,2 C -1,3 C 0,0 C 83 % 88 % 0 % 1020,3 hPa 0,0 l/m 9,7 km/h (2 Bft) O-NO 67 0 min -2,0 C -4,8 C 10,9 km/h (2 Bft)
02.01.2016 12:20 0,4 C 21,9 C 1,5 C 0,2 C -0,8 C 0,0 C 83 % 88 % 0 % 1020,3 hPa 0,0 l/m 8,4 km/h (2 Bft) O-NO 67 0 min -2,1 C -3,8 C 5,5 km/h (1 Bft)
02.01.2016 12:25 0,5 C 22,0 C 1,7 C 0,4 C -0,4 C 0,0 C 83 % 88 % 0 % 1020,3 hPa 0,0 l/m 8,0 km/h (2 Bft) O-NO 67 0 min -2,0 C -3,2 C 9,8 km/h (2 Bft)
02.01.2016 12:30 0,5 C 21,9 C 1,7 C 0,4 C 0,1 C 0,0 C 83 % 88 % 0 % 1020,0 hPa 0,0 l/m 7,4 km/h (2 Bft) NO 45 0 min -2,0 C -2,4 C 7,7 km/h (2 Bft)
02.01.2016 12:35 0,7 C 22,0 C 1,9 C 0,5 C 0,1 C 0,0 C 82 % 87 % 0 % 1020,0 hPa 0,0 l/m 7,4 km/h (2 Bft) O 90 0 min -2,0 C -2,4 C 9,8 km/h (2 Bft)
02.01.2016 12:41 0,7 C 22,0 C 2,0 C 0,6 C 0,4 C 0,0 C 82 % 87 % 0 % 1020,0 hPa 0,0 l/m 7,6 km/h (2 Bft) N 0 0 min -2,0 C -2,1 C 8,4 km/h (2 Bft)
02.01.2016 12:50 0,8 C 22,0 C 2,0 C 0,9 C -0,1 C 0,1 C 82 % 86 % 3 % 1020,0 hPa 0,0 l/m 9,2 km/h (2 Bft) O-NO 67 0 min -1,9 C -3,2 C 6,6 km/h (2 Bft)
02.01.2016 12:55 0,8 C 22,0 C 2,0 C 0,8 C 0,0 C 0,0 C 83 % 86 % 0 % 1020,0 hPa 0,0 l/m 9,3 km/h (2 Bft) O-NO 67 0 min -1,8 C -3,1 C 8,0 km/h (2 Bft)
02.01.2016 13:00 0,7 C 22,0 C 2,0 C 0,8 C 0,8 C 0,1 C 83 % 87 % 3 % 1020,0 hPa 0,0 l/m 6,9 km/h (2 Bft) O-NO 67 0 min -1,8 C -1,4 C 6,8 km/h (2 Bft)
02.01.2016 13:05 0,7 C 22,0 C 2,1 C 1,4 C 1,4 C 0,7 C 83 % 87 % 18 % 1020,0 hPa 0,0 l/m 5,6 km/h (1 Bft) O-NO 67 0 min -1,8 C -0,3 C 5,1 km/h (1 Bft)
02.01.2016 13:10 0,6 C 22,0 C 2,3 C 1,7 C 1,7 C 1,1 C 84 % 87 % 29 % 1019,4 hPa 0,0 l/m 5,0 km/h (1 Bft) NO 45 0 min -1,8 C 0,3 C 4,7 km/h (1 Bft)
02.01.2016 13:15 0,6 C 22,0 C 2,3 C 1,8 C 1,8 C 1,2 C 84 % 87 % 32 % 1019,4 hPa 0,0 l/m 5,0 km/h (1 Bft) O-NO 67 0 min -1,8 C 0,5 C 4,7 km/h (1 Bft)
02.01.2016 13:20 0,9 C 22,0 C 2,4 C 1,2 C 1,2 C 0,3 C 83 % 87 % 8 % 1019,4 hPa 0,0 l/m 7,4 km/h (2 Bft) O-NO 67 0 min -1,7 C -1,1 C 14,6 km/h (3 Bft)
02.01.2016 13:25 0,9 C 22,0 C 2,5 C 1,8 C 0,9 C 0,9 C 83 % 86 % 24 % 1019,4 hPa 0,0 l/m 8,7 km/h (2 Bft) O-NO 67 0 min -1,7 C -1,9 C 6,8 km/h (2 Bft)
02.01.2016 13:30 1,1 C 22,0 C 2,3 C 1,4 C 0,4 C 0,3 C 82 % 86 % 8 % 1019,4 hPa 0,0 l/m 9,5 km/h (2 Bft) O 90 0 min -1,6 C -2,7 C 11,3 km/h (2 Bft)
02.01.2016 13:35 1,1 C 22,0 C 2,2 C 1,1 C 0,1 C 0,0 C 82 % 86 % 0 % 1019,4 hPa 0,0 l/m 9,5 km/h (2 Bft) O 90 0 min -1,6 C -3,1 C 12,2 km/h (2 Bft)
02.01.2016 13:40 1,1 C 22,0 C 2,2 C 1,0 C -0,5 C 0,0 C 81 % 85 % 0 % 1019,4 hPa 0,0 l/m 10,6 km/h (2 Bft) O-NO 67 0 min -1,8 C -4,1 C 17,7 km/h (3 Bft)
02.01.2016 13:45 1,1 C 22,0 C 2,3 C 0,9 C -0,7 C 0,0 C 81 % 85 % 0 % 1019,4 hPa 0,0 l/m 10,9 km/h (2 Bft) O-NO 67 0 min -1,8 C -4,4 C 15,3 km/h (3 Bft)
02.01.2016 13:50 1,1 C 22,0 C 2,1 C 0,8 C -0,9 C 0,0 C 81 % 85 % 0 % 1019,4 hPa 0,0 l/m 11,6 km/h (2 Bft) O-NO 67 0 min -1,8 C -4,8 C 13,5 km/h (3 Bft)
02.01.2016 13:55 1,1 C 22,0 C 2,0 C 0,4 C -0,9 C 0,0 C 81 % 85 % 0 % 1019,4 hPa 0,0 l/m 11,6 km/h (2 Bft) O-NO 67 0 min -1,8 C -4,8 C 10,8 km/h (2 Bft)
02.01.2016 14:00 1,1 C 22,0 C 2,0 C 0,8 C -0,7 C 0,0 C 81 % 85 % 0 % 1019,4 hPa 0,0 l/m 10,3 km/h (2 Bft) O-SO 112 0 min -1,8 C -4,2 C 9,3 km/h (2 Bft)
02.01.2016 14:05 1,1 C 22,0 C 1,9 C 0,8 C -0,8 C 0,0 C 81 % 85 % 0 % 1019,4 hPa 0,0 l/m 10,1 km/h (2 Bft) O 90 0 min -1,8 C -4,3 C 12,2 km/h (2 Bft)
02.01.2016 14:10 1,1 C 22,0 C 1,9 C 0,8 C -0,9 C 0,0 C 81 % 86 % 0 % 1019,4 hPa 0,0 l/m 9,7 km/h (2 Bft) O-NO 67 0 min -1,8 C -4,3 C 13,2 km/h (3 Bft)
02.01.2016 14:15 1,1 C 22,0 C 1,9 C 0,4 C -0,9 C 0,0 C 81 % 86 % 0 % 1019,4 hPa 0,0 l/m 9,5 km/h (2 Bft) O-NO 67 0 min -1,8 C -4,3 C 12,4 km/h (3 Bft)
02.01.2016 14:20 1,0 C 22,0 C 1,8 C 0,7 C -0,8 C 0,0 C 81 % 86 % 0 % 1019,4 hPa 0,0 l/m 9,5 km/h (2 Bft) O-NO 67 0 min -1,9 C -4,1 C 13,7 km/h (3 Bft)
02.01.2016 14:25 1,1 C 22,0 C 1,8 C 0,8 C -0,7 C 0,0 C 81 % 86 % 0 % 1019,4 hPa 0,0 l/m 9,5 km/h (2 Bft) O-NO 67 0 min -1,8 C -4,0 C 12,1 km/h (2 Bft)
02.01.2016 14:30 1,1 C 22,0 C 1,9 C 0,8 C -0,6 C 0,0 C 81 % 86 % 0 % 1018,6 hPa 0,0 l/m 10,0 km/h (2 Bft) O-NO 67 0 min -1,8 C -4,0 C 9,2 km/h (2 Bft)
02.01.2016 14:35 1,1 C 22,0 C 1,9 C 0,9 C -0,3 C 0,0 C 81 % 86 % 0 % 1018,6 hPa 0,0 l/m 9,8 km/h (2 Bft) O-NO 67 0 min -1,8 C -3,6 C 7,7 km/h (2 Bft)
02.01.2016 14:40 1,1 C 22,0 C 1,9 C 1,0 C 0,1 C 0,0 C 81 % 86 % 0 % 1018,6 hPa 0,0 l/m 9,8 km/h (2 Bft) O-NO 67 0 min -1,8 C -3,1 C 10,1 km/h (2 Bft)
02.01.2016 14:45 1,1 C 22,0 C 1,8 C 1,1 C 0,3 C 0,0 C 81 % 86 % 0 % 1018,6 hPa 0,0 l/m 9,2 km/h (2 Bft) O-NO 67 0 min -1,8 C -2,7 C 8,2 km/h (2 Bft)
02.01.2016 14:50 1,1 C 22,0 C 1,8 C 1,2 C 0,4 C 0,1 C 81 % 86 % 3 % 1018,6 hPa 0,0 l/m 9,0 km/h (2 Bft) O 90 0 min -1,8 C -2,6 C 10,5 km/h (2 Bft)
02.01.2016 14:55 1,1 C 22,0 C 1,7 C 1,1 C 0,2 C 0,0 C 81 % 86 % 0 % 1018,6 hPa 0,0 l/m 9,3 km/h (2 Bft) O-NO 67 0 min -1,8 C -2,9 C 11,4 km/h (2 Bft)
02.01.2016 15:00 1,0 C 22,0 C 1,6 C 0,9 C -0,4 C 0,0 C 81 % 86 % 0 % 1018,6 hPa 0,0 l/m 9,8 km/h (2 Bft) O-NO 67 0 min -1,9 C -3,7 C 9,8 km/h (2 Bft)
02.01.2016 15:05 1,0 C 22,0 C 1,4 C 0,8 C -0,6 C 0,0 C 81 % 86 % 0 % 1018,6 hPa 0,0 l/m 9,3 km/h (2 Bft) O-NO 67 0 min -1,9 C -3,8 C 9,8 km/h (2 Bft)
02.01.2016 15:10 0,9 C 22,0 C 1,3 C 0,6 C -0,9 C 0,0 C 81 % 86 % 0 % 1018,6 hPa 0,0 l/m 8,2 km/h (2 Bft) O-NO 67 0 min -2,0 C -3,9 C 10,5 km/h (2 Bft)
02.01.2016 15:15 0,8 C 22,0 C 1,2 C 0,4 C -1,2 C 0,0 C 81 % 87 % 0 % 1018,6 hPa 0,0 l/m 7,7 km/h (2 Bft) O-NO 67 0 min -2,1 C -4,0 C 9,8 km/h (2 Bft)
02.01.2016 15:20 0,8 C 22,0 C 1,2 C 0,4 C -1,4 C 0,0 C 82 % 87 % 0 % 1018,6 hPa 0,0 l/m 8,5 km/h (2 Bft) O-NO 67 0 min -1,9 C -4,5 C 8,4 km/h (2 Bft)
02.01.2016 15:25 0,7 C 22,0 C 1,2 C 0,3 C -1,5 C 0,0 C 82 % 87 % 0 % 1018,6 hPa 0,0 l/m 8,7 km/h (2 Bft) O-NO 67 0 min -2,0 C -4,7 C 15,1 km/h (3 Bft)
02.01.2016 15:30 0,7 C 22,0 C 1,1 C 0,3 C -1,4 C 0,0 C 82 % 87 % 0 % 1018,6 hPa 0,0 l/m 7,7 km/h (2 Bft) O-NO 67 0 min -2,0 C -4,3 C 10,3 km/h (2 Bft)
02.01.2016 15:35 0,6 C 22,0 C 1,1 C 0,2 C -1,7 C 0,0 C 82 % 87 % 0 % 1018,6 hPa 0,0 l/m 8,5 km/h (2 Bft) O-NO 67 0 min -2,1 C -4,9 C 11,3 km/h (2 Bft)
02.01.2016 15:41 0,6 C 22,1 C 1,1 C 0,1 C -2,1 C 0,0 C 82 % 87 % 0 % 1018,6 hPa 0,0 l/m 9,8 km/h (2 Bft) N 0 0 min -2,1 C -5,8 C 14,3 km/h (3 Bft)
02.01.2016 15:50 0,5 C 22,1 C 1,1 C 0,0 C -2,2 C 0,0 C 82 % 88 % 0 % 1018,6 hPa 0,0 l/m 10,1 km/h (2 Bft) O 90 0 min -2,2 C -6,0 C 10,0 km/h (2 Bft)
02.01.2016 15:55 0,5 C 22,1 C 1,1 C 0,0 C -2,0 C 0,0 C 82 % 88 % 0 % 1018,6 hPa 0,0 l/m 9,5 km/h (2 Bft) O-NO 67 0 min -2,2 C -5,6 C 9,2 km/h (2 Bft)
02.01.2016 16:00 0,5 C 22,2 C 1,0 C -0,3 C -2,0 C 0,0 C 82 % 88 % 0 % 1018,6 hPa 0,0 l/m 9,5 km/h (2 Bft) O-NO 67 0 min -2,2 C -5,6 C 12,7 km/h (3 Bft)
02.01.2016 16:05 0,5 C 22,2 C 1,1 C 0,0 C -1,9 C 0,0 C 82 % 88 % 0 % 1018,6 hPa 0,0 l/m 9,3 km/h (2 Bft) O-NO 67 0 min -2,2 C -5,4 C 6,8 km/h (2 Bft)
02.01.2016 16:10 0,4 C 22,1 C 1,1 C 0,0 C -1,8 C 0,0 C 82 % 88 % 0 % 1018,6 hPa 0,0 l/m 9,0 km/h (2 Bft) O-SO 112 0 min -2,3 C -5,2 C 10,1 km/h (2 Bft)
02.01.2016 16:15 0,5 C 22,2 C 1,1 C 0,1 C -1,6 C 0,0 C 82 % 88 % 0 % 1018,6 hPa 0,0 l/m 8,4 km/h (2 Bft) O-NO 67 0 min -2,2 C -4,7 C 10,8 km/h (2 Bft)
02.01.2016 16:20 0,5 C 22,2 C 1,3 C 0,1 C -1,5 C 0,0 C 82 % 88 % 0 % 1018,6 hPa 0,0 l/m 8,7 km/h (2 Bft) O-NO 67 0 min -2,2 C -4,7 C 7,9 km/h (2 Bft)
02.01.2016 16:25 0,7 C 22,2 C 1,3 C 0,3 C -1,2 C 0,0 C 82 % 88 % 0 % 1018,6 hPa 0,0 l/m 7,7 km/h (2 Bft) O-NO 67 0 min -2,0 C -4,0 C 8,2 km/h (2 Bft)
02.01.2016 16:30 0,7 C 22,2 C 1,2 C 0,2 C -0,9 C 0,0 C 82 % 88 % 0 % 1018,6 hPa 0,0 l/m 7,1 km/h (2 Bft) O-NO 67 0 min -2,0 C -3,5 C 8,2 km/h (2 Bft)
02.01.2016 16:35 0,6 C 22,2 C 1,2 C 0,3 C -1,2 C 0,0 C 82 % 88 % 0 % 1018,6 hPa 0,0 l/m 7,7 km/h (2 Bft) O-NO 67 0 min -2,1 C -4,0 C 9,7 km/h (2 Bft)
02.01.2016 16:40 0,6 C 22,2 C 1,2 C 0,0 C -1,2 C 0,0 C 82 % 88 % 0 % 1018,6 hPa 0,0 l/m 7,9 km/h (2 Bft) O-NO 67 0 min -2,1 C -4,1 C 11,9 km/h (2 Bft)
02.01.2016 16:45 0,6 C 22,2 C 1,2 C 0,0 C -1,2 C 0,0 C 82 % 88 % 0 % 1018,6 hPa 0,0 l/m 7,7 km/h (2 Bft) O 90 0 min -2,1 C -4,0 C 10,0 km/h (2 Bft)
02.01.2016 16:50 0,7 C 22,2 C 1,2 C 0,3 C -1,3 C 0,0 C 82 % 88 % 0 % 1018,6 hPa 0,0 l/m 8,4 km/h (2 Bft) NO 45 0 min -2,0 C -4,4 C 9,0 km/h (2 Bft)
02.01.2016 16:55 0,7 C 22,1 C 1,3 C 0,3 C -1,4 C 0,0 C 82 % 88 % 0 % 1018,6 hPa 0,0 l/m 8,5 km/h (2 Bft) O-SO 112 0 min -2,0 C -4,5 C 9,8 km/h (2 Bft)
02.01.2016 17:00 0,7 C 22,1 C 1,2 C 0,3 C -1,3 C 0,0 C 82 % 87 % 0 % 1018,6 hPa 0,0 l/m 8,0 km/h (2 Bft) O-NO 67 0 min -2,0 C -4,3 C 7,6 km/h (2 Bft)
02.01.2016 17:05 0,7 C 22,1 C 1,2 C 0,0 C -1,3 C 0,0 C 82 % 87 % 0 % 1018,6 hPa 0,0 l/m 8,0 km/h (2 Bft) O-NO 67 0 min -2,0 C -4,3 C 10,5 km/h (2 Bft)
02.01.2016 17:10 0,7 C 22,1 C 1,2 C 0,0 C -1,3 C 0,0 C 82 % 87 % 0 % 1018,6 hPa 0,0 l/m 8,4 km/h (2 Bft) O-NO 67 0 min -2,0 C -4,4 C 10,1 km/h (2 Bft)
02.01.2016 17:15 0,7 C 22,1 C 1,3 C 0,3 C -1,2 C 0,0 C 82 % 87 % 0 % 1018,6 hPa 0,0 l/m 8,2 km/h (2 Bft) NO 45 0 min -2,0 C -4,2 C 10,0 km/h (2 Bft)
02.01.2016 17:20 0,8 C 22,1 C 1,3 C 0,1 C -1,2 C 0,0 C 82 % 87 % 0 % 1018,6 hPa 0,0 l/m 8,4 km/h (2 Bft) O-NO 67 0 min -1,9 C -4,3 C 12,1 km/h (2 Bft)
02.01.2016 17:25 0,8 C 22,1 C 1,3 C 0,4 C -1,4 C 0,0 C 82 % 87 % 0 % 1018,6 hPa 0,0 l/m 9,0 km/h (2 Bft) O-NO 67 0 min -1,9 C -4,7 C 10,6 km/h (2 Bft)
02.01.2016 17:30 0,8 C 22,1 C 1,3 C 0,4 C -1,2 C 0,0 C 82 % 87 % 0 % 1018,8 hPa 0,0 l/m 8,2 km/h (2 Bft) O-SO 112 0 min -1,9 C -4,2 C 5,3 km/h (1 Bft)
02.01.2016 17:35 0,7 C 22,1 C 1,3 C 0,2 C -0,9 C 0,0 C 82 % 87 % 0 % 1018,8 hPa 0,0 l/m 7,4 km/h (2 Bft) NO 45 0 min -2,0 C -3,6 C 7,4 km/h (2 Bft)
02.01.2016 17:40 0,7 C 22,1 C 1,3 C 0,2 C -0,9 C 0,0 C 82 % 87 % 0 % 1018,8 hPa 0,0 l/m 7,2 km/h (2 Bft) O-NO 67 0 min -2,0 C -3,5 C 7,9 km/h (2 Bft)
02.01.2016 17:45 0,7 C 22,1 C 1,3 C 0,4 C -1,1 C 0,0 C 82 % 87 % 0 % 1018,8 hPa 0,0 l/m 7,9 km/h (2 Bft) O-SO 112 0 min -2,0 C -4,0 C 12,4 km/h (3 Bft)
02.01.2016 17:50 0,8 C 22,1 C 1,4 C 0,5 C -1,0 C 0,0 C 82 % 87 % 0 % 1018,6 hPa 0,0 l/m 7,9 km/h (2 Bft) NO 45 0 min -1,9 C -3,9 C 6,1 km/h (2 Bft)
02.01.2016 17:55 0,8 C 22,1 C 1,5 C 0,2 C -0,9 C 0,0 C 82 % 87 % 0 % 1018,6 hPa 0,0 l/m 7,2 km/h (2 Bft) O-NO 67 0 min -1,9 C -3,5 C 9,5 km/h (2 Bft)
02.01.2016 18:00 0,9 C 22,1 C 1,5 C 0,4 C -0,7 C 0,0 C 82 % 87 % 0 % 1018,6 hPa 0,0 l/m 7,1 km/h (2 Bft) O-NO 67 0 min -1,8 C -3,3 C 10,6 km/h (2 Bft)
02.01.2016 18:05 0,8 C 22,1 C 1,5 C 0,2 C -0,9 C 0,0 C 82 % 87 % 0 % 1018,6 hPa 0,0 l/m 7,6 km/h (2 Bft) O-NO 67 0 min -1,9 C -3,7 C 11,9 km/h (2 Bft)
02.01.2016 18:10 0,8 C 22,1 C 1,5 C 0,3 C -0,8 C 0,0 C 82 % 87 % 0 % 1018,5 hPa 0,0 l/m 7,2 km/h (2 Bft) NO 45 0 min -1,9 C -3,4 C 5,1 km/h (1 Bft)
02.01.2016 18:15 0,8 C 22,1 C 1,5 C 0,4 C -0,4 C 0,0 C 82 % 87 % 0 % 1018,5 hPa 0,0 l/m 6,3 km/h (2 Bft) N-NO 22 0 min -1,9 C -2,6 C 3,1 km/h (1 Bft)
02.01.2016 18:20 0,4 C 22,1 C 1,1 C 0,3 C 0,1 C 0,0 C 81 % 87 % 0 % 1018,5 hPa 0,0 l/m 3,9 km/h (1 Bft) W-SW 247 0 min -2,5 C 0,1 C 4,0 km/h (1 Bft)
02.01.2016 18:25 0,1 C 22,2 C 0,8 C 0,1 C 0,1 C 0,0 C 82 % 87 % 0 % 1018,5 hPa 0,0 l/m 3,2 km/h (1 Bft) O-NO 67 0 min -2,6 C 0,1 C 5,1 km/h (1 Bft)
02.01.2016 18:30 -0,3 C 22,3 C 0,5 C -0,6 C -1,1 C 0,0 C 82 % 87 % 0 % 1018,3 hPa 0,0 l/m 4,2 km/h (1 Bft) O-NO 67 0 min -3,0 C -1,1 C 5,1 km/h (1 Bft)
02.01.2016 18:35 -0,6 C 22,3 C 0,3 C -0,9 C -1,4 C 0,0 C 82 % 87 % 0 % 1018,3 hPa 0,0 l/m 4,3 km/h (1 Bft) O-NO 67 0 min -3,3 C -1,4 C 4,8 km/h (1 Bft)
02.01.2016 18:41 -0,7 C 22,3 C 0,1 C -0,9 C -1,4 C 0,0 C 83 % 88 % 0 % 1018,3 hPa 0,0 l/m 3,9 km/h (1 Bft) N 0 0 min -3,2 C -1,4 C 3,4 km/h (1 Bft)
02.01.2016 18:50 -1,2 C 22,3 C -0,1 C -1,4 C -1,8 C 0,0 C 83 % 88 % 0 % 1018,3 hPa 0,0 l/m 3,9 km/h (1 Bft) O-NO 67 0 min -3,7 C -1,8 C 5,3 km/h (1 Bft)
02.01.2016 18:55 -1,3 C 22,3 C -0,1 C -1,5 C -1,8 C 0,0 C 83 % 88 % 0 % 1018,3 hPa 0,0 l/m 3,9 km/h (1 Bft) O 90 0 min -3,8 C -1,8 C 4,8 km/h (1 Bft)
02.01.2016 19:00 -1,3 C 22,2 C -0,4 C -1,6 C -2,3 C 0,0 C 83 % 88 % 0 % 1018,3 hPa 0,0 l/m 4,7 km/h (1 Bft) O-NO 67 0 min -3,8 C -4,0 C 6,9 km/h (2 Bft)
02.01.2016 19:05 -1,5 C 22,3 C -0,5 C -1,9 C -2,6 C 0,0 C 84 % 88 % 0 % 1018,3 hPa 0,0 l/m 5,0 km/h (1 Bft) NO 45 0 min -3,8 C -4,5 C 4,0 km/h (1 Bft)
02.01.2016 19:10 -1,7 C 22,3 C -0,7 C -2,1 C -2,8 C 0,0 C 83 % 88 % 0 % 1018,3 hPa 0,0 l/m 4,8 km/h (1 Bft) NO 45 0 min -4,2 C -4,7 C 5,1 km/h (1 Bft)
02.01.2016 19:15 -1,9 C 22,3 C -0,8 C -2,2 C -2,9 C 0,0 C 84 % 88 % 0 % 1018,3 hPa 0,0 l/m 4,8 km/h (1 Bft) O 90 0 min -4,2 C -4,8 C 8,7 km/h (2 Bft)
02.01.2016 19:20 -1,9 C 22,3 C -0,9 C -2,4 C -3,3 C 0,0 C 84 % 88 % 0 % 1018,3 hPa 0,0 l/m 5,3 km/h (1 Bft) O-NO 67 0 min -4,2 C -5,5 C 4,8 km/h (1 Bft)
02.01.2016 19:25 -2,1 C 22,3 C -0,9 C -2,5 C -3,4 C 0,0 C 84 % 88 % 0 % 1018,3 hPa 0,0 l/m 5,5 km/h (1 Bft) O-NO 67 0 min -4,4 C -5,7 C 6,6 km/h (2 Bft)
02.01.2016 19:30 -2,1 C 22,3 C -1,0 C -2,5 C -3,4 C 0,0 C 84 % 88 % 0 % 1018,3 hPa 0,0 l/m 5,1 km/h (1 Bft) O-NO 67 0 min -4,4 C -5,5 C 6,6 km/h (2 Bft)
02.01.2016 19:35 -2,3 C 22,3 C -1,1 C -2,7 C -3,5 C 0,0 C 84 % 88 % 0 % 1018,3 hPa 0,0 l/m 5,5 km/h (1 Bft) O-NO 67 0 min -4,6 C -5,8 C 10,3 km/h (2 Bft)
02.01.2016 19:40 -2,3 C 22,2 C -1,1 C -2,8 C -3,8 C 0,0 C 84 % 88 % 0 % 1018,3 hPa 0,0 l/m 5,8 km/h (2 Bft) O-NO 67 0 min -4,6 C -6,3 C 7,7 km/h (2 Bft)
02.01.2016 19:45 -2,4 C 22,2 C -1,2 C -3,0 C -4,2 C 0,0 C 84 % 88 % 0 % 1018,3 hPa 0,0 l/m 6,6 km/h (2 Bft) O-NO 67 0 min -4,7 C -7,1 C 12,1 km/h (2 Bft)
02.01.2016 19:50 -2,5 C 22,2 C -1,3 C -3,1 C -4,2 C 0,0 C 85 % 88 % 0 % 1018,0 hPa 0,0 l/m 6,3 km/h (2 Bft) O-NO 67 0 min -4,7 C -7,0 C 6,4 km/h (2 Bft)
02.01.2016 19:55 -2,5 C 22,2 C -1,3 C -3,1 C -4,2 C 0,0 C 85 % 88 % 0 % 1018,0 hPa 0,0 l/m 6,3 km/h (2 Bft) NO 45 0 min -4,7 C -7,0 C 7,1 km/h (2 Bft)
02.01.2016 20:00 -2,5 C 22,2 C -1,3 C -3,0 C -4,0 C 0,0 C 85 % 88 % 0 % 1018,0 hPa 0,0 l/m 5,8 km/h (2 Bft) NO 45 0 min -4,7 C -6,5 C 8,5 km/h (2 Bft)
02.01.2016 20:05 -2,5 C 22,2 C -1,3 C -3,0 C -3,9 C 0,0 C 85 % 88 % 0 % 1018,0 hPa 0,0 l/m 5,6 km/h (1 Bft) O-NO 67 0 min -4,7 C -6,3 C 8,7 km/h (2 Bft)
02.01.2016 20:10 -2,7 C 22,2 C -1,3 C -3,2 C -4,2 C 0,0 C 85 % 88 % 0 % 1018,1 hPa 0,0 l/m 6,0 km/h (2 Bft) O-NO 67 0 min -4,9 C -6,9 C 6,4 km/h (2 Bft)
02.01.2016 20:15 -2,7 C 22,2 C -1,3 C -3,2 C -4,3 C 0,0 C 85 % 88 % 0 % 1018,1 hPa 0,0 l/m 6,1 km/h (2 Bft) O-NO 67 0 min -4,9 C -7,0 C 5,8 km/h (2 Bft)
02.01.2016 20:20 -2,8 C 22,2 C -1,5 C -3,3 C -4,4 C 0,0 C 84 % 88 % 0 % 1018,1 hPa 0,0 l/m 6,1 km/h (2 Bft) O-NO 67 0 min -5,1 C -7,1 C 5,0 km/h (1 Bft)
02.01.2016 20:25 -2,7 C 22,2 C -1,6 C -3,3 C -4,4 C 0,0 C 85 % 88 % 0 % 1018,1 hPa 0,0 l/m 6,3 km/h (2 Bft) O-NO 67 0 min -4,9 C -7,2 C 4,5 km/h (1 Bft)
02.01.2016 20:30 -2,9 C 22,2 C -1,6 C -3,4 C -4,4 C 0,0 C 84 % 88 % 0 % 1018,1 hPa 0,0 l/m 6,1 km/h (2 Bft) O-NO 67 0 min -5,2 C -7,1 C 6,6 km/h (2 Bft)
02.01.2016 20:35 -2,9 C 22,2 C -1,7 C -3,5 C -4,8 C 0,0 C 84 % 88 % 0 % 1018,1 hPa 0,0 l/m 6,8 km/h (2 Bft) NO 45 0 min -5,2 C -7,9 C 11,3 km/h (2 Bft)
02.01.2016 20:40 -2,9 C 22,2 C -1,7 C -3,6 C -5,1 C 0,0 C 84 % 88 % 0 % 1018,1 hPa 0,0 l/m 7,1 km/h (2 Bft) NO 45 0 min -5,2 C -8,4 C 8,7 km/h (2 Bft)
02.01.2016 20:45 -3,1 C 22,1 C -1,8 C -3,8 C -5,1 C 0,0 C 84 % 88 % 0 % 1018,1 hPa 0,0 l/m 7,2 km/h (2 Bft) O-NO 67 0 min -5,4 C -8,4 C 8,7 km/h (2 Bft)
02.01.2016 20:50 -3,1 C 22,1 C -1,9 C -3,8 C -5,3 C 0,0 C 84 % 88 % 0 % 1018,3 hPa 0,0 l/m 7,2 km/h (2 Bft) O-NO 67 0 min -5,4 C -8,6 C 6,6 km/h (2 Bft)
02.01.2016 20:55 -3,3 C 22,1 C -2,0 C -4,0 C -5,4 C 0,0 C 84 % 88 % 0 % 1018,3 hPa 0,0 l/m 7,2 km/h (2 Bft) O-NO 67 0 min -5,6 C -8,8 C 7,7 km/h (2 Bft)
02.01.2016 21:00 -3,3 C 22,1 C -2,0 C -4,1 C -5,6 C 0,0 C 84 % 88 % 0 % 1018,3 hPa 0,0 l/m 7,6 km/h (2 Bft) O-NO 67 0 min -5,6 C -9,2 C 10,0 km/h (2 Bft)
02.01.2016 21:05 -3,3 C 22,1 C -2,0 C -3,7 C -5,7 C 0,0 C 85 % 88 % 0 % 1018,3 hPa 0,0 l/m 7,9 km/h (2 Bft) O-NO 67 0 min -5,5 C -9,4 C 9,3 km/h (2 Bft)
02.01.2016 21:10 -3,3 C 22,1 C -2,0 C -4,0 C -5,5 C 0,0 C 85 % 88 % 0 % 1018,3 hPa 0,0 l/m 7,4 km/h (2 Bft) NO 45 0 min -5,5 C -9,0 C 8,2 km/h (2 Bft)
02.01.2016 21:15 -3,4 C 22,1 C -2,0 C -4,0 C -5,3 C 0,0 C 85 % 89 % 0 % 1018,3 hPa 0,0 l/m 6,9 km/h (2 Bft) O-NO 67 0 min -5,5 C -8,5 C 9,5 km/h (2 Bft)
02.01.2016 21:20 -3,3 C 22,1 C -2,1 C -4,0 C -5,3 C 0,0 C 85 % 89 % 0 % 1018,3 hPa 0,0 l/m 6,6 km/h (2 Bft) O-NO 67 0 min -5,5 C -8,4 C 9,2 km/h (2 Bft)
02.01.2016 21:25 -3,5 C 22,1 C -2,1 C -4,1 C -5,4 C 0,0 C 85 % 89 % 0 % 1018,3 hPa 0,0 l/m 6,8 km/h (2 Bft) O-NO 67 0 min -5,6 C -8,6 C 9,2 km/h (2 Bft)
02.01.2016 21:30 -3,5 C 22,3 C -2,1 C -4,1 C -5,2 C 0,0 C 85 % 89 % 0 % 1018,1 hPa 0,0 l/m 6,3 km/h (2 Bft) O-NO 67 0 min -5,6 C -8,1 C 7,4 km/h (2 Bft)
02.01.2016 21:35 -3,5 C 22,3 C -2,1 C -4,0 C -5,1 C 0,0 C 85 % 89 % 0 % 1018,1 hPa 0,0 l/m 6,1 km/h (2 Bft) NO 45 0 min -5,6 C -7,9 C 6,6 km/h (2 Bft)
02.01.2016 21:41 -3,5 C 22,4 C -2,1 C -3,9 C -4,8 C 0,0 C 85 % 89 % 0 % 1018,1 hPa 0,0 l/m 5,5 km/h (1 Bft) N 0 0 min -5,6 C -7,3 C 4,3 km/h (1 Bft)
02.01.2016 21:50 -3,5 C 22,4 C -2,1 C -4,0 C -4,9 C 0,0 C 86 % 89 % 0 % 1018,2 hPa 0,0 l/m 5,6 km/h (1 Bft) O-NO 67 0 min -5,5 C -7,5 C 6,6 km/h (2 Bft)
02.01.2016 21:55 -3,5 C 22,4 C -2,1 C -4,1 C -5,2 C 0,0 C 86 % 89 % 0 % 1018,2 hPa 0,0 l/m 6,3 km/h (2 Bft) O-NO 67 0 min -5,5 C -8,1 C 5,8 km/h (2 Bft)
02.01.2016 22:00 -3,5 C 22,4 C -2,1 C -4,1 C -5,4 C 0,0 C 86 % 89 % 0 % 1018,2 hPa 0,0 l/m 6,8 km/h (2 Bft) O-NO 67 0 min -5,5 C -8,6 C 8,2 km/h (2 Bft)
02.01.2016 22:05 -3,5 C 22,4 C -2,1 C -4,1 C -5,2 C 0,0 C 86 % 89 % 0 % 1018,2 hPa 0,0 l/m 6,4 km/h (2 Bft) NO 45 0 min -5,5 C -8,2 C 7,1 km/h (2 Bft)
02.01.2016 22:10 -3,5 C 22,4 C -2,1 C -4,0 C -5,1 C 0,0 C 86 % 89 % 0 % 1017,9 hPa 0,0 l/m 6,1 km/h (2 Bft) O-NO 67 0 min -5,5 C -7,9 C 8,9 km/h (2 Bft)
02.01.2016 22:15 -3,5 C 22,4 C -2,1 C -4,1 C -5,2 C 0,0 C 86 % 89 % 0 % 1017,9 hPa 0,0 l/m 6,4 km/h (2 Bft) NO 45 0 min -5,5 C -8,2 C 9,7 km/h (2 Bft)
02.01.2016 22:20 -3,5 C 22,4 C -2,1 C -4,0 C -4,9 C 0,0 C 86 % 89 % 0 % 1017,9 hPa 0,0 l/m 5,8 km/h (2 Bft) O 90 0 min -5,5 C -7,6 C 4,5 km/h (1 Bft)
02.01.2016 22:25 -3,5 C 22,4 C -2,1 C -3,9 C -4,8 C 0,0 C 86 % 89 % 0 % 1017,9 hPa 0,0 l/m 5,5 km/h (1 Bft) O-NO 67 0 min -5,5 C -7,3 C 5,8 km/h (2 Bft)
02.01.2016 22:30 -3,5 C 22,4 C -2,1 C -3,9 C -4,7 C 0,0 C 86 % 89 % 0 % 1017,9 hPa 0,0 l/m 5,3 km/h (1 Bft) O-NO 67 0 min -5,5 C -7,1 C 5,5 km/h (1 Bft)
02.01.2016 22:35 -3,5 C 22,4 C -2,1 C -3,8 C -4,3 C 0,0 C 86 % 89 % 0 % 1017,9 hPa 0,0 l/m 4,8 km/h (1 Bft) O-NO 67 0 min -5,5 C -6,4 C 3,9 km/h (1 Bft)
02.01.2016 22:40 -3,3 C 22,4 C -2,1 C -3,6 C -4,1 C 0,0 C 86 % 89 % 0 % 1017,9 hPa 0,0 l/m 4,3 km/h (1 Bft) O-NO 67 0 min -5,3 C -4,1 C 3,5 km/h (1 Bft)
02.01.2016 22:45 -3,3 C 22,4 C -2,0 C -3,6 C -4,2 C 0,0 C 86 % 89 % 0 % 1017,9 hPa 0,0 l/m 4,5 km/h (1 Bft) O-NO 67 0 min -5,3 C -4,2 C 8,0 km/h (2 Bft)
02.01.2016 22:50 -3,3 C 22,3 C -1,9 C -3,6 C -4,1 C 0,0 C 86 % 89 % 0 % 1018,1 hPa 0,0 l/m 4,3 km/h (1 Bft) O-NO 67 0 min -5,3 C -4,1 C 5,5 km/h (1 Bft)
02.01.2016 22:55 -3,3 C 22,4 C -2,0 C -3,6 C -4,1 C 0,0 C 86 % 89 % 0 % 1018,1 hPa 0,0 l/m 4,3 km/h (1 Bft) O-NO 67 0 min -5,3 C -4,1 C 4,3 km/h (1 Bft)
02.01.2016 23:00 -3,3 C 22,3 C -2,1 C -3,6 C -4,3 C 0,0 C 86 % 89 % 0 % 1018,1 hPa 0,0 l/m 4,8 km/h (1 Bft) NO 45 0 min -5,3 C -6,4 C 6,1 km/h (2 Bft)
02.01.2016 23:05 -3,5 C 22,3 C -2,1 C -3,8 C -4,4 C 0,0 C 86 % 89 % 0 % 1018,1 hPa 0,0 l/m 4,7 km/h (1 Bft) O-NO 67 0 min -5,5 C -6,4 C 4,3 km/h (1 Bft)
02.01.2016 23:10 -3,3 C 22,3 C -2,1 C -3,5 C -3,8 C 0,0 C 86 % 89 % 0 % 1018,2 hPa 0,0 l/m 3,7 km/h (1 Bft) NO 45 0 min -5,3 C -3,8 C 2,9 km/h (1 Bft)
02.01.2016 23:15 -3,5 C 22,3 C -2,0 C -3,4 C -3,4 C 0,1 C 86 % 89 % 0 % 1018,2 hPa 0,0 l/m 3,1 km/h (1 Bft) O-NO 67 0 min -5,5 C -3,4 C 5,8 km/h (2 Bft)
02.01.2016 23:20 -3,3 C 22,3 C -2,0 C -2,7 C -2,7 C 0,6 C 86 % 89 % 0 % 1018,2 hPa 0,0 l/m 2,4 km/h (1 Bft) O-SO 112 0 min -5,3 C -2,7 C 3,1 km/h (1 Bft)
02.01.2016 23:25 -3,3 C 22,3 C -2,0 C -3,3 C -3,3 C 0,0 C 86 % 89 % 0 % 1018,2 hPa 0,0 l/m 3,2 km/h (1 Bft) NO 45 0 min -5,3 C -3,3 C 5,3 km/h (1 Bft)
02.01.2016 23:30 -3,3 C 22,3 C -2,0 C -3,3 C -3,3 C 0,0 C 86 % 89 % 0 % 1018,2 hPa 0,0 l/m 3,4 km/h (1 Bft) N-NO 22 0 min -5,3 C -3,3 C 3,2 km/h (1 Bft)
02.01.2016 23:35 -3,4 C 22,3 C -2,0 C -3,4 C -3,4 C 0,0 C 86 % 89 % 0 % 1018,2 hPa 0,0 l/m 3,5 km/h (1 Bft) O-NO 67 0 min -5,4 C -3,4 C 4,8 km/h (1 Bft)
02.01.2016 23:40 -3,3 C 22,3 C -2,0 C -3,4 C -3,6 C 0,0 C 86 % 89 % 0 % 1018,2 hPa 0,0 l/m 3,5 km/h (1 Bft) NO 45 0 min -5,3 C -3,6 C 4,3 km/h (1 Bft)
02.01.2016 23:45 -3,3 C 22,3 C -1,9 C -3,3 C -3,4 C 0,0 C 86 % 89 % 0 % 1018,2 hPa 0,0 l/m 3,5 km/h (1 Bft) N-NO 22 0 min -5,3 C -3,4 C 3,4 km/h (1 Bft)
02.01.2016 23:50 -3,4 C 22,3 C -1,9 C -3,4 C -3,4 C 0,0 C 86 % 89 % 0 % 1017,9 hPa 0,0 l/m 3,5 km/h (1 Bft) O-NO 67 0 min -5,4 C -3,4 C 4,2 km/h (1 Bft)
02.01.2016 23:55 -3,3 C 22,3 C -2,0 C -3,5 C -3,9 C 0,0 C 86 % 89 % 0 % 1017,9 hPa 0,0 l/m 4,0 km/h (1 Bft) O-NO 67 0 min -5,3 C -3,9 C 5,6 km/h (1 Bft)
_ Min-Zeit 04:30 12:20 04:30 04:30 21:05 01:10 13:40 13:40 00:00 22:10 - 01:10 - - - 04:30 21:05 00:00
Minimum _ -4,3 C 21,9 C -3,1 C -4,4 C -5,7 C 0,0 C 81 % 85 % 0 % 1017,9 hPa - 0,0 km/h (0 Bft) - - - -5,8 C -9,4 C 0,0 km/h (0 Bft)
_ Max-Zeit 13:30 00:00 13:25 13:15 13:15 13:15 00:00 00:41 13:15 00:00 00:00 13:50 - - 00:00 13:30 13:15 13:40
Maximum _ 1,1 C 22,9 C 2,5 C 1,8 C 1,8 C 1,2 C 90 % 90 % 32 % 1024,4 hPa 0,0 l/m 11,6 km/h
O-NO (2 Bft)
- - 0 min -1,6 C 0,5 C 17,7 km/h
O-NO (3 Bft)
Durchschnitt _ -1,8 C 22,3 C -0,8 C -2,0 C -2,7 C 0,1 C 86 % 88 % 0 % 1020,3 hPa #0,0 l/m 4,8 km/h (1 Bft) O-NO - #0 min. -3,8 C -4,2 C 5,6 km/h (1 Bft)
2016 www.wetterstation-wechselburg.de